VLG1446 LEAL-LEBB

Flight info

Callsign VLG1446
Flight time 0h 59m
Altitude 34000
Route ASTRO L150 RBO N867 DGO
Aircraft A320/M-SDFGHILORVWXY/LB1

Departure

Time 2026-04-29 07:22
Airport Alicante-Elche Miguel Hernández Airport (LEAL)

Arrival

Time 2026-04-29 08:21
Airport Bilbao Airport (LEBB)
Time Latitude Longitude Altitude Speed Heading
2026-04-29 07:05 38.28610 -0.55033 93 ft 0 kts 280°
2026-04-29 07:15 38.28609 -0.55032 92 ft 1 kts 280°
2026-04-29 07:15 38.28606 -0.55002 92 ft 4 kts 272°
2026-04-29 07:15 38.28608 -0.54968 88 ft 4 kts 249°
2026-04-29 07:16 38.28621 -0.54946 92 ft 3 kts 192°
2026-04-29 07:16 38.28624 -0.54945 92 ft 0 kts 190°
2026-04-29 07:17 38.28596 -0.54951 90 ft 9 kts 189°
2026-04-29 07:18 38.28503 -0.54971 87 ft 18 kts 189°
2026-04-29 07:18 38.28423 -0.55024 88 ft 10 kts 257°
2026-04-29 07:18 38.28413 -0.55111 88 ft 10 kts 246°
2026-04-29 07:18 38.28368 -0.55190 87 ft 14 kts 227°
2026-04-29 07:19 38.28303 -0.55153 81 ft 13 kts 85°
2026-04-29 07:19 38.28287 -0.55033 74 ft 15 kts 101°
2026-04-29 07:19 38.28262 -0.54861 67 ft 27 kts 99°
2026-04-29 07:19 38.28225 -0.54609 58 ft 31 kts 101°
2026-04-29 07:20 38.28191 -0.54371 53 ft 27 kts 99°
2026-04-29 07:20 38.28161 -0.54198 47 ft 14 kts 133°
2026-04-29 07:20 38.28082 -0.54194 51 ft 9 kts 188°
2026-04-29 07:20 38.28010 -0.54217 53 ft 10 kts 223°
2026-04-29 07:21 38.28003 -0.54288 55 ft 7 kts 278°
2026-04-29 07:21 38.28011 -0.54351 51 ft 12 kts 279°
2026-04-29 07:21 38.28065 -0.54757 67 ft 83 kts 279°
2026-04-29 07:21 38.28206 -0.55747 99 ft 141 kts 279°
2026-04-29 07:22 38.28392 -0.57106 454 ft 160 kts 280°
2026-04-29 07:22 38.28601 -0.58524 1058 ft 167 kts 282°
2026-04-29 07:22 38.28837 -0.59991 1718 ft 170 kts 283°
2026-04-29 07:22 38.29093 -0.61461 2398 ft 170 kts 284°
2026-04-29 07:23 38.29374 -0.62991 2761 ft 187 kts 284°
2026-04-29 07:23 38.29685 -0.64684 3117 ft 205 kts 284°
2026-04-29 07:23 38.29997 -0.66526 3492 ft 222 kts 283°
2026-04-29 07:23 38.30327 -0.68483 3987 ft 232 kts 287°
2026-04-29 07:24 38.31183 -0.70309 4289 ft 254 kts 319°
2026-04-29 07:24 38.32691 -0.71623 4774 ft 270 kts 330°
2026-04-29 07:24 38.34168 -0.72767 5472 ft 276 kts 329°
2026-04-29 07:24 38.35825 -0.74039 6321 ft 280 kts 329°
2026-04-29 07:25 38.37512 -0.75330 7108 ft 284 kts 328°
2026-04-29 07:25 38.39197 -0.76626 7919 ft 288 kts 328°
2026-04-29 07:25 38.40919 -0.77957 8757 ft 291 kts 327°
2026-04-29 07:25 38.42662 -0.79309 9570 ft 295 kts 327°
2026-04-29 07:26 38.44418 -0.80678 10247 ft 304 kts 326°
2026-04-29 07:26 38.46302 -0.82151 10486 ft 328 kts 326°
2026-04-29 07:26 38.48300 -0.83715 10915 ft 342 kts 327°
2026-04-29 07:26 38.50347 -0.85314 11597 ft 347 kts 327°
2026-04-29 07:27 38.52422 -0.86931 12319 ft 352 kts 327°
2026-04-29 07:27 38.54523 -0.88566 13038 ft 356 kts 327°
2026-04-29 07:27 38.56648 -0.90221 13745 ft 360 kts 327°
2026-04-29 07:27 38.58796 -0.91895 14374 ft 363 kts 327°
2026-04-29 07:28 38.60961 -0.93585 15016 ft 366 kts 326°
2026-04-29 07:28 38.63142 -0.95297 15672 ft 368 kts 326°
2026-04-29 07:28 38.65332 -0.97016 16333 ft 371 kts 326°
2026-04-29 07:28 38.67542 -0.98749 16964 ft 373 kts 326°
2026-04-29 07:29 38.69765 -1.00490 17595 ft 376 kts 326°
2026-04-29 07:29 38.72002 -1.02245 18224 ft 378 kts 326°
2026-04-29 07:29 38.74228 -1.03996 18760 ft 381 kts 326°
2026-04-29 07:29 38.76502 -1.05785 19292 ft 384 kts 326°
2026-04-29 07:30 38.78790 -1.07588 19814 ft 388 kts 326°
2026-04-29 07:30 38.81097 -1.09409 20341 ft 391 kts 326°
2026-04-29 07:30 38.83427 -1.11252 20852 ft 394 kts 326°
2026-04-29 07:31 38.88142 -1.14977 21883 ft 401 kts 326°
2026-04-29 07:31 38.90535 -1.16870 22345 ft 406 kts 326°
2026-04-29 07:31 38.92958 -1.18788 22831 ft 410 kts 326°
2026-04-29 07:31 38.95368 -1.20698 23316 ft 413 kts 326°
2026-04-29 07:32 38.97825 -1.22647 23739 ft 416 kts 326°
2026-04-29 07:32 39.00298 -1.24610 24144 ft 419 kts 326°
2026-04-29 07:32 39.02788 -1.26598 24554 ft 421 kts 325°
2026-04-29 07:32 39.05237 -1.28698 24953 ft 423 kts 323°
2026-04-29 07:33 39.07605 -1.30874 25335 ft 425 kts 321°
2026-04-29 07:33 39.09987 -1.33144 25717 ft 427 kts 321°
2026-04-29 07:33 39.12371 -1.35442 26080 ft 429 kts 321°
2026-04-29 07:33 39.14777 -1.37753 26449 ft 432 kts 321°
2026-04-29 07:34 39.17204 -1.40063 26794 ft 434 kts 321°
2026-04-29 07:34 39.19647 -1.42368 27149 ft 436 kts 321°
2026-04-29 07:34 39.22111 -1.44672 27500 ft 439 kts 322°
2026-04-29 07:34 39.24590 -1.46982 27843 ft 441 kts 322°
2026-04-29 07:35 39.27083 -1.49305 28185 ft 443 kts 321°
2026-04-29 07:35 39.29586 -1.51643 28507 ft 445 kts 321°
2026-04-29 07:35 39.32071 -1.53971 28818 ft 448 kts 321°
2026-04-29 07:35 39.34601 -1.56345 29095 ft 451 kts 321°
2026-04-29 07:36 39.37144 -1.58732 29424 ft 453 kts 321°
2026-04-29 07:36 39.39702 -1.61135 29735 ft 454 kts 321°
2026-04-29 07:36 39.41399 -1.62731 29929 ft 456 kts 321°
2026-04-29 07:36 39.44840 -1.65976 30260 ft 458 kts 321°
2026-04-29 07:37 39.46543 -1.67586 30418 ft 459 kts 321°
2026-04-29 07:37 39.49129 -1.70031 30655 ft 461 kts 321°
2026-04-29 07:37 39.51725 -1.72485 30891 ft 463 kts 321°
2026-04-29 07:37 39.54336 -1.74953 31131 ft 464 kts 321°
2026-04-29 07:38 39.57801 -1.78229 31473 ft 465 kts 321°
2026-04-29 07:38 39.60409 -1.80698 31792 ft 464 kts 321°
2026-04-29 07:38 39.63010 -1.83168 32102 ft 463 kts 321°
2026-04-29 07:38 39.64761 -1.84834 32298 ft 463 kts 321°
2026-04-29 07:39 39.67327 -1.87275 32601 ft 462 kts 321°
2026-04-29 07:39 39.69921 -1.89740 32896 ft 462 kts 321°
2026-04-29 07:39 39.72517 -1.92212 33207 ft 461 kts 321°
2026-04-29 07:39 39.75106 -1.94678 33504 ft 461 kts 321°
2026-04-29 07:40 39.77692 -1.97142 33807 ft 461 kts 321°
2026-04-29 07:40 39.80286 -1.99617 33929 ft 458 kts 320°
2026-04-29 07:40 39.85345 -2.04443 33939 ft 451 kts 320°
2026-04-29 07:41 39.90396 -2.09274 33940 ft 450 kts 320°
2026-04-29 07:41 39.95428 -2.14118 33934 ft 450 kts 320°
2026-04-29 07:42 40.00459 -2.18963 33934 ft 450 kts 320°
2026-04-29 07:42 40.05497 -2.23824 33932 ft 450 kts 320°
2026-04-29 07:43 40.10507 -2.28659 33928 ft 450 kts 320°
2026-04-29 07:43 40.15544 -2.33522 33922 ft 450 kts 320°
2026-04-29 07:44 40.20582 -2.38402 33910 ft 451 kts 320°
2026-04-29 07:44 40.25631 -2.43296 33908 ft 451 kts 320°
2026-04-29 07:45 40.30677 -2.48176 33898 ft 451 kts 320°
2026-04-29 07:45 40.35737 -2.53060 33904 ft 451 kts 319°
2026-04-29 07:46 40.40152 -2.58706 33900 ft 445 kts 308°
2026-04-29 07:46 40.44308 -2.64710 33893 ft 445 kts 308°
2026-04-29 07:47 40.48476 -2.70736 33901 ft 446 kts 308°
2026-04-29 07:47 40.52639 -2.76777 33885 ft 446 kts 308°
2026-04-29 07:48 40.56814 -2.82841 33884 ft 447 kts 308°
2026-04-29 07:48 40.60974 -2.88880 33884 ft 448 kts 308°
2026-04-29 07:49 40.65152 -2.94960 33880 ft 448 kts 308°
2026-04-29 07:49 40.69327 -3.01067 33883 ft 448 kts 307°
2026-04-29 07:50 40.73499 -3.07192 33904 ft 449 kts 307°
2026-04-29 07:50 40.77648 -3.13281 33897 ft 449 kts 307°
2026-04-29 07:51 40.82137 -3.19038 33893 ft 455 kts 322°
2026-04-29 07:51 40.84909 -3.21109 33886 ft 460 kts 334°
2026-04-29 07:51 40.87958 -3.22443 33889 ft 464 kts 346°
2026-04-29 07:52 40.91169 -3.22970 33883 ft 466 kts 358°
2026-04-29 07:52 40.94406 -3.22660 33881 ft 467 kts
2026-04-29 07:52 41.00780 -3.21221 33878 ft 468 kts
2026-04-29 07:53 41.07223 -3.19772 33879 ft 469 kts
2026-04-29 07:53 41.13674 -3.18325 33876 ft 471 kts
2026-04-29 07:54 41.20149 -3.16863 33875 ft 472 kts
2026-04-29 07:54 41.26640 -3.15398 33872 ft 473 kts
2026-04-29 07:55 41.33114 -3.13938 33879 ft 474 kts
2026-04-29 07:55 41.39630 -3.12463 33872 ft 475 kts
2026-04-29 07:56 41.46147 -3.10977 33872 ft 475 kts
2026-04-29 07:56 41.52671 -3.09495 33879 ft 475 kts
2026-04-29 07:57 41.59204 -3.08016 33865 ft 476 kts
2026-04-29 07:57 41.65706 -3.06540 33863 ft 477 kts
2026-04-29 07:58 41.72258 -3.05045 33849 ft 477 kts
2026-04-29 07:58 41.78794 -3.03547 33896 ft 475 kts
2026-04-29 07:59 41.85319 -3.02048 33862 ft 477 kts
2026-04-29 07:59 41.91837 -3.00540 33858 ft 479 kts
2026-04-29 08:00 41.98434 -2.99015 33781 ft 482 kts
2026-04-29 08:00 42.01732 -2.98250 32601 ft 483 kts
2026-04-29 08:00 42.05037 -2.97481 31428 ft 480 kts
2026-04-29 08:01 42.08319 -2.96715 30424 ft 474 kts
2026-04-29 08:01 42.11540 -2.95965 29442 ft 467 kts
2026-04-29 08:01 42.14725 -2.95221 28424 ft 459 kts
2026-04-29 08:01 42.17815 -2.94503 27499 ft 452 kts
2026-04-29 08:02 42.20891 -2.93790 26584 ft 445 kts
2026-04-29 08:02 42.23902 -2.93090 26035 ft 430 kts
2026-04-29 08:02 42.26786 -2.92416 25600 ft 414 kts
2026-04-29 08:02 42.29577 -2.91761 25131 ft 400 kts
2026-04-29 08:03 42.32278 -2.91126 24657 ft 388 kts
2026-04-29 08:03 42.34897 -2.90514 24198 ft 376 kts
2026-04-29 08:03 42.37446 -2.89920 23749 ft 369 kts
2026-04-29 08:03 42.39969 -2.89332 23240 ft 367 kts
2026-04-29 08:04 42.42474 -2.88677 22796 ft 365 kts 14°
2026-04-29 08:04 42.44862 -2.87516 22370 ft 364 kts 25°
2026-04-29 08:04 42.47049 -2.85816 21937 ft 362 kts 36°
2026-04-29 08:04 42.48986 -2.83670 21512 ft 359 kts 43°
2026-04-29 08:05 42.50849 -2.81420 21084 ft 357 kts 43°
2026-04-29 08:05 42.52704 -2.79189 20662 ft 355 kts 42°
2026-04-29 08:05 42.54530 -2.76996 20247 ft 353 kts 42°
2026-04-29 08:05 42.56366 -2.74794 19830 ft 351 kts 42°
2026-04-29 08:06 42.58189 -2.72601 19422 ft 349 kts 42°
2026-04-29 08:06 42.60004 -2.70417 19006 ft 347 kts 42°
2026-04-29 08:06 42.61811 -2.68236 18593 ft 349 kts 42°
2026-04-29 08:06 42.63624 -2.66042 18174 ft 349 kts 43°
2026-04-29 08:07 42.65378 -2.63917 17757 ft 349 kts 43°
2026-04-29 08:07 42.67186 -2.61721 17339 ft 348 kts 43°
2026-04-29 08:07 42.68994 -2.59526 16933 ft 347 kts 43°
2026-04-29 08:07 42.70797 -2.57340 16529 ft 347 kts 43°
2026-04-29 08:08 42.72601 -2.55153 16125 ft 347 kts 43°
2026-04-29 08:08 42.74398 -2.52971 15725 ft 347 kts 43°
2026-04-29 08:08 42.76197 -2.50784 15323 ft 347 kts 43°
2026-04-29 08:08 42.77977 -2.48618 14929 ft 347 kts 43°
2026-04-29 08:09 42.79774 -2.46428 14517 ft 346 kts 43°
2026-04-29 08:09 42.81562 -2.44237 14109 ft 346 kts 44°
2026-04-29 08:09 42.83352 -2.42045 13713 ft 346 kts 44°
2026-04-29 08:09 42.85151 -2.39843 13279 ft 346 kts 44°
2026-04-29 08:10 42.86933 -2.37662 12860 ft 345 kts 43°
2026-04-29 08:10 42.88713 -2.35482 12449 ft 343 kts 43°
2026-04-29 08:10 42.90492 -2.33305 12034 ft 342 kts 43°
2026-04-29 08:10 42.92264 -2.31134 11622 ft 342 kts 43°
2026-04-29 08:11 42.94003 -2.29007 11399 ft 328 kts 43°
2026-04-29 08:11 42.95795 -2.27146 10810 ft 323 kts 26°
2026-04-29 08:11 42.97902 -2.26375 10392 ft 309 kts 359°
2026-04-29 08:11 42.99960 -2.26819 9984 ft 295 kts 334°
2026-04-29 08:12 43.01637 -2.28282 9556 ft 288 kts 311°
2026-04-29 08:12 43.03023 -2.30254 9147 ft 287 kts 309°
2026-04-29 08:12 43.04400 -2.32236 8729 ft 288 kts 309°
2026-04-29 08:12 43.05777 -2.34217 8313 ft 287 kts 309°
2026-04-29 08:13 43.07160 -2.36198 7867 ft 288 kts 309°
2026-04-29 08:13 43.08543 -2.38174 7432 ft 287 kts 309°
2026-04-29 08:13 43.09913 -2.40137 7145 ft 279 kts 309°
2026-04-29 08:13 43.11222 -2.42008 7072 ft 265 kts 309°
2026-04-29 08:14 43.12458 -2.43796 6965 ft 251 kts 305°
2026-04-29 08:14 43.13381 -2.45741 6864 ft 240 kts 290°
2026-04-29 08:14 43.14125 -2.47786 6759 ft 240 kts 290°
2026-04-29 08:14 43.14863 -2.49800 6655 ft 239 kts 292°
2026-04-29 08:15 43.15618 -2.51836 6541 ft 238 kts 291°
2026-04-29 08:15 43.16375 -2.53873 6309 ft 240 kts 291°
2026-04-29 08:15 43.17128 -2.55897 6042 ft 237 kts 291°
2026-04-29 08:15 43.17876 -2.57910 5878 ft 239 kts 291°
2026-04-29 08:16 43.18630 -2.59944 5583 ft 240 kts 292°
2026-04-29 08:16 43.19388 -2.61987 5246 ft 241 kts 292°
2026-04-29 08:16 43.20147 -2.64035 4900 ft 242 kts 292°
2026-04-29 08:16 43.20911 -2.66099 4529 ft 243 kts 292°
2026-04-29 08:17 43.21672 -2.68155 4160 ft 245 kts 293°
2026-04-29 08:17 43.22435 -2.70218 3793 ft 240 kts 293°
2026-04-29 08:17 43.23182 -2.72238 3431 ft 235 kts 294°
2026-04-29 08:17 43.23912 -2.74213 3085 ft 229 kts 294°
2026-04-29 08:18 43.24621 -2.76137 2749 ft 224 kts 294°
2026-04-29 08:18 43.25314 -2.78018 2405 ft 218 kts 295°
2026-04-29 08:18 43.25980 -2.79823 2087 ft 206 kts 295°
2026-04-29 08:18 43.26596 -2.81495 1768 ft 188 kts 296°
2026-04-29 08:19 43.27160 -2.83029 1471 ft 170 kts 296°
2026-04-29 08:19 43.27668 -2.84409 1207 ft 156 kts 296°
2026-04-29 08:19 43.28139 -2.85693 976 ft 146 kts 296°
2026-04-29 08:19 43.28589 -2.86917 763 ft 142 kts 296°
2026-04-29 08:20 43.29033 -2.88129 515 ft 141 kts 296°
2026-04-29 08:20 43.29446 -2.89264 318 ft 141 kts 296°
2026-04-29 08:20 43.29887 -2.90444 143 ft 139 kts 297°
2026-04-29 08:20 43.30198 -2.91274 125 ft 104 kts 297°
2026-04-29 08:21 43.30382 -2.91782 123 ft 53 kts 297°
2026-04-29 08:21 43.30541 -2.91985 125 ft 19 kts 326°
2026-04-29 08:21 43.30626 -2.92019 128 ft 6 kts 37°
2026-04-29 08:21 43.30629 -2.91995 128 ft 5 kts 84°
2026-04-29 08:22 43.30605 -2.91901 127 ft 16 kts 116°
2026-04-29 08:22 43.30549 -2.91751 126 ft 18 kts 117°
2026-04-29 08:22 43.30482 -2.91571 126 ft 23 kts 117°
2026-04-29 08:22 43.30409 -2.91377 126 ft 22 kts 117°
2026-04-29 08:23 43.30355 -2.91225 127 ft 9 kts 113°
2026-04-29 08:23 43.30333 -2.91156 127 ft 9 kts 113°
2026-04-29 08:23 43.30315 -2.91058 127 ft 10 kts 75°
2026-04-29 08:23 43.30357 -2.91007 126 ft 6 kts 34°
2026-04-29 08:24 43.30381 -2.90985 123 ft 4 kts 33°
2026-04-29 08:24 43.30406 -2.90925 126 ft 11 kts 83°
2026-04-29 08:24 43.30410 -2.90820 126 ft 9 kts 92°
2026-04-29 08:24 43.30384 -2.90726 125 ft 14 kts 115°
2026-04-29 08:25 43.30387 -2.90660 123 ft 4 kts 41°
2026-04-29 08:25 43.30406 -2.90646 126 ft 5 kts 26°
2026-04-29 08:25 43.30426 -2.90633 124 ft 1 kts 26°
2026-04-29 08:25 43.30427 -2.90632 124 ft 0 kts 26°